Regional Weather Roundup
Issued by NWS

Home | Current Version | Previous Version | Text Only | Print | Product List | Glossary Off
Versions: 1 2 3 4 5 6 7 8 9 10 11 12 13 14 15 16 17 18 19 20 21 22 23 24 25 26 27 28 29 30 31 32 33 34 35 36 37 38 39 40 41 42 43 44 45 46 47 48 49 50

000
ASUS43 KLOT 280600
RWRIL

ILLINOIS REGIONAL WEATHER ROUNDUP
NATIONAL WEATHER SERVICE CHICAGO/ROMEOVILLE IL
100 AM CDT TUE JUL 28 2015

NOTE: "FAIR" INDICATES FEW OR NO CLOUDS BELOW 12,000 FEET WITH NO
SIGNIFICANT WEATHER AND/OR OBSTRUCTIONS TO VISIBILITY.

* THESE STATIONS ARE NOT UNDER NWS QUALITY CONTROL. THEY ALSO MAY NOT
  REPORT WEATHER SUCH AS PRECIPITATION OR FOG.

ILZ001-002-007-009-015-016-024-280700-
NORTHWEST ILLINOIS

CITY           SKY/WX    TMP DP  RH WIND       PRES   REMARKS
MOLINE         CLEAR     73  69  87 CALM      29.95R
6HR MIN TEMP:  73; 6HR MAX TEMP:  83;

STERLING*      CLEAR     70  66  88 E5        29.97R
$$

ILZ003-004-008-010-011-017-018-280700-
NORTH CENTRAL ILLINOIS

CITY           SKY/WX    TMP DP  RH WIND       PRES   REMARKS
ROCKFORD       PTCLDY    71  63  75 E5        30.02R
6HR MIN TEMP:  71; 6HR MAX TEMP:  83;

FREEPORT*      CLEAR     65  63  94 E6        30.01S
$$

ILZ005-006-012>014-019>023-280700-
NORTHEAST ILLINOIS

CITY           SKY/WX    TMP DP  RH WIND       PRES   REMARKS
CHICAGO-OHARE  MOCLDY    74  67  78 E6        29.99F
6HR MIN TEMP:  74; 6HR MAX TEMP:  81;

CHICAGO-MIDWAY CLOUDY    76  66  71 E6        29.98F
6HR MIN TEMP:  76; 6HR MAX TEMP:  84;

AURORA         MOCLDY    72  63  73 E6        30.00S
6HR MIN TEMP:  70; 6HR MAX TEMP:  82;

LANSING*       PTCLDY    72  65  80 E3        29.99F
WAUKEGAN       PTCLDY    66  64  93 E3        30.00F
6HR MIN TEMP:  66; 6HR MAX TEMP:  75;

DUPAGE AIRPORT MOCLDY    72  64  76 E6        30.00S
6HR MIN TEMP:  72; 6HR MAX TEMP:  82;

WHEELING       MOCLDY    72  67  84 CALM      30.01F
6HR MIN TEMP:  70; 6HR MAX TEMP:  79;

NORTHERLY ISL    N/A     74  68  81 NE6         N/A
$$

LMZ740>746-280700-
SOUTHERN LAKE MICHIGAN

STATION/POSITION SKY/WX   TEMP    WIND        PRES    VSBY  WAVE
                          AIR SEA DIR/SP/G                  HT/PER
                          (F)     (DEG/KT/KT) (MB)    (MI)  (FT/S)
HARRISON CRIB              74      80/ 12/ 14   N/A
BURNHAM HARBOR             73      20/  3/  4   N/A
CALUMET HARBOR             74      70/  4/  6   N/A
BURNS HARBOR               73      70/  6/  6 1016.6F
MICHIGAN CITY              72      60/  2/  2   N/A
MICHIGAN CITY 6N           74 74   90/  6/  8   N/A           1/ 3
ST. JOSEPH                 73 74  130/  4/  4   N/A           1
$$

ILZ025>027-034>036-040-047-049-050-058-095>099-280700-
WEST-CENTRAL ILLINOIS

CITY           SKY/WX    TMP DP  RH WIND       PRES   REMARKS
QUINCY         MOCLDY    72  70  93 SE3       29.94R
MACOMB*        PTCLDY    73  73  98 CALM      29.97R FOG
$$

ILZ028>032-037-038-041>044-048-051>054-059>061-280700-
CENTRAL ILLINOIS

CITY           SKY/WX    TMP DP  RH WIND       PRES   REMARKS
DECATUR        CLOUDY    76  72  87 E6        29.95F
PEORIA         MOCLDY    78  71  79 E5        29.95S HX  80
6HR MIN TEMP:  78; 6HR MAX TEMP:  85; 6HR PCP: TRACE;

SPRINGFIELD    CLOUDY    79  74  84 SE5       29.95R HX  82
6HR MIN TEMP:  78; 6HR MAX TEMP:  86; 6HR PCP: TRACE;

TAYLORVILLE    NOT AVBL
$$

ILZ033-039-045-046-055>057-062-063-280700-
EAST-CENTRAL ILLINOIS

CITY           SKY/WX    TMP DP  RH WIND       PRES   REMARKS
CHAMPAIGN      CLOUDY    74  72  93 E5        29.96F
MATTOON        CLOUDY    76  71  85 CALM      29.94F
$$

ILZ079-100>102-280700-
SOUTHWEST ILLINOIS

CITY           SKY/WX    TMP DP  RH WIND       PRES   REMARKS
BELLEVILLE     CLOUDY    74  74 100 W3        29.94S
CAHOKIA*       CLOUDY    76  72  87 CALM      29.95R
SPARTA*        CLOUDY    74  73  96 CALM      29.96F
$$

ILZ064>066-069>071-074>076-080>082-084>086-088>090-092>094-280700-
SOUTH-CENTRAL ILLINOIS

CITY           SKY/WX    TMP DP  RH WIND       PRES   REMARKS
CARBONDALE     CLOUDY    75  73  93 W3        29.95F
6HR MIN TEMP:  75; 6HR MAX TEMP:  77;

MT. VERNON     CLOUDY    73  70  88 CALM      29.95S
SALEM*         CLOUDY    76  72  86 CALM      29.95S
$$

ILZ067-068-072-073-078-083-087-091-280700-
SOUTHEAST ILLINOIS

CITY           SKY/WX    TMP DP  RH WIND       PRES   REMARKS
LAWRENCEVILLE  CLOUDY    76  72  87 CALM      29.95F
FLORA*           N/A    N/A N/A N/A SE3       29.95F
HARRISBURG*    MOCLDY    74  74 100 CALM      29.96S
ROBINSON*      CLOUDY    72  71  96 NW3       29.95F FOG
CARMI*         CLOUDY    73  69  85 CALM      29.94F
$$

ABBREVIATIONS USED IN REMARKS
   TC - TEMPERATURE IN CELSIUS
  WCI - WIND CHILL INDEX
   HX - HEAT INDEX
  VSB - VISIBILITY
$$




USA.gov is the U.S. government's official web portal to all federal, state and local government web resources and services.